TimeEST,TemperatureF,Dew PointF,Humidity,Sea Level PressureIn,VisibilityMPH,Wind Direction,Wind SpeedMPH,Gust SpeedMPH,PrecipitationIn,Events,Conditions,WindDirDegrees,DateUTC
12:54 AM,9.0,-9.0,44,30.40,10.0,North,9.2,-,N/A,,Overcast,10,2013-02-07 05:54:00
1:54 AM,7.0,-8.0,51,30.41,10.0,North,10.4,-,N/A,,Partly Cloudy,350,2013-02-07 06:54:00
2:54 AM,3.9,-8.0,58,30.43,10.0,North,13.8,-,N/A,,Clear,350,2013-02-07 07:54:00
3:54 AM,3.0,-9.9,55,30.46,10.0,NNW,11.5,-,N/A,,Clear,330,2013-02-07 08:54:00
4:54 AM,1.9,-9.9,58,30.50,10.0,North,9.2,-,N/A,,Clear,350,2013-02-07 09:54:00
5:54 AM,1.0,-11.0,57,30.51,10.0,North,6.9,-,N/A,,Clear,10,2013-02-07 10:54:00
6:54 AM,1.0,-11.0,57,30.53,10.0,NNW,8.1,-,N/A,,Clear,330,2013-02-07 11:54:00
7:54 AM,-0.0,-9.9,63,30.56,10.0,NNE,4.6,-,N/A,,Clear,20,2013-02-07 12:54:00
8:54 AM,3.0,-9.9,55,30.58,10.0,NNE,4.6,-,N/A,,Clear,30,2013-02-07 13:54:00
9:54 AM,3.9,-11.0,50,30.60,10.0,NNE,4.6,-,N/A,,Clear,30,2013-02-07 14:54:00
10:54 AM,6.1,-11.0,45,30.61,10.0,North,3.5,-,N/A,,Mostly Cloudy,360,2013-02-07 15:54:00
11:54 AM,9.0,-11.9,38,30.59,10.0,North,4.6,-,N/A,,Clear,10,2013-02-07 16:54:00
12:54 PM,9.0,-11.9,38,30.56,10.0,North,6.9,-,N/A,,Overcast,10,2013-02-07 17:54:00
1:54 PM,10.9,-9.9,39,30.55,10.0,North,4.6,-,N/A,,Overcast,10,2013-02-07 18:54:00
2:54 PM,12.9,-9.9,35,30.54,10.0,North,3.5,-,N/A,,Scattered Clouds,360,2013-02-07 19:54:00
3:54 PM,12.9,-9.0,37,30.54,10.0,NNW,4.6,-,N/A,,Overcast,340,2013-02-07 20:54:00
4:54 PM,12.0,-8.0,41,30.52,10.0,Calm,Calm,-,N/A,,Overcast,0,2013-02-07 21:54:00
5:54 PM,12.0,-7.1,42,30.54,10.0,Calm,Calm,-,N/A,,Overcast,0,2013-02-07 22:54:00
6:54 PM,12.0,-6.0,44,30.53,10.0,North,3.5,-,N/A,,Overcast,360,2013-02-07 23:54:00
7:54 PM,10.9,-7.1,44,30.55,10.0,North,3.5,-,N/A,,Overcast,360,2013-02-08 00:54:00
8:54 PM,10.9,-6.0,47,30.53,10.0,NNW,3.5,-,N/A,,Overcast,330,2013-02-08 01:54:00
9:54 PM,10.9,-6.0,47,30.52,10.0,Calm,Calm,-,N/A,,Overcast,0,2013-02-08 02:54:00
10:54 PM,10.0,-5.1,51,30.50,10.0,Calm,Calm,-,N/A,,Overcast,0,2013-02-08 03:54:00
11:54 PM,10.9,-5.1,49,30.48,10.0,Calm,Calm,-,N/A,,Overcast,0,2013-02-08 04:54:00